Regional Weather Roundup
Issued by NWS

Home | Current Version | Previous Version | Text Only | Print | Product List | Glossary Off
Versions: 1 2 3 4 5 6 7 8 9 10 11 12 13 14 15 16 17 18 19 20 21 22 23 24 25 26 27 28 29 30 31 32 33 34 35 36 37 38 39 40 41 42 43 44 45 46 47 48 49 50

945
ASUS43 KDTX 200410
RWRMI
MICHIGAN HOURLY REGIONAL WEATHER ROUNDUP
NATIONAL WEATHER SERVICE DETROIT/PONTIAC MI
ISSUED BY NATIONAL WEATHER SERVICE GRAND RAPIDS MI
1100 PM EST SUN FEB 19 2017

NOTE: "FAIR" INDICATES FEW OR NO CLOUDS BELOW 12,000 FEET WITH NO
SIGNIFICANT WEATHER AND/OR OBSTRUCTION TO VISIBILITY.

MIZ047>049-052>055-059>063-066>070-074>076-081>083-200500-
SOUTHEAST LOWER MICHIGAN

CITY           SKY/WX    TMP DP  RH WIND       PRES   REMARKS
ADRIAN         CLEAR     40  31  70 N3        30.15R
ALMA           CLOUDY    34  29  82 CALM      30.15S
ANN ARBOR      CLEAR     35  31  85 CALM      30.14R
BAD AXE        CLEAR     29  26  88 CALM      30.18R
DETROIT CITY   CLOUDY    40  32  73 NE5       30.17R
DETROIT        PTCLDY    44  33  65 NE6       30.16R
FLINT          CLOUDY    38  31  76 E10       30.17R WCI  31
GROSSE ILE     CLEAR     40  33  76 NE6       30.15R
HILLSDALE      CLEAR     41  30  65 CALM      30.14R
HOWELL         CLEAR     37  30  75 CALM      30.14S

CITY           SKY/WX    TMP DP  RH WIND       PRES   REMARKS
JACKSON        CLEAR     40  29  64 CALM      30.14R
LANSING        CLEAR     40  29  64 CALM      30.15R
MASON          CLEAR     38  33  84 CALM      30.14S
MONROE         PTCLDY    44  35  71 E5        30.14R
MT. CLEMENS    PTCLDY    37  31  78 N7        30.15R WCI  31
PONTIAC        CLOUDY    38  30  73 E5        30.15R WCI  34
PORT HOPE        N/A     32  29  88 CALM      30.16R
PORT HURON     CLOUDY    30  30 100 CALM      30.18R
TRI CITIES     PTCLDY    36  31  82 E9        30.17R WCI  29
YPSILANTI      CLEAR     42  33  70 E8        30.16R
$$
MIZ043>046-050>051-056>058-064>065-071>073-077>080-200500-
SOUTHWEST LOWER MICHIGAN

CITY           SKY/WX    TMP DP  RH WIND       PRES   REMARKS
BATTLE CREEK   CLEAR     40  28  62 CALM      30.15R
BENTON HARBOR  PTCLDY    37  29  72 SE3       30.13R
BIG RAPIDS     CLOUDY    34  27  75 CALM      30.14R
COLDWATER      CLOUDY    37  32  82 CALM      30.15R
HOLLAND        CLOUDY    37  31  78 CALM      30.14S
GRAND RAPIDS   PTCLDY    37  28  70 SW3       30.14R
KALAMAZOO      CLOUDY    40  25  55 CALM      30.15R
MARSHALL       CLEAR     38  31  73 CALM      30.14S
MOUNT PLEASANT CLOUDY    33  28  81 CALM      30.15S
MUSKEGON       CLOUDY    35  29  78 SE6       30.14R WCI  30
STURGIS        CLOUDY    43  28  56 CALM      30.14R
$$
MIZ016>042-200500-
NORTHERN LOWER MICHIGAN

CITY           SKY/WX    TMP DP  RH WIND       PRES   REMARKS
ALPENA         PTCLDY    34  29  82 CALM      30.18R
BEAVER ISLAND  PTCLDY    33  30  89 E3        30.16S
BELLAIRE       CLEAR     28  27  95 CALM      30.16S
CADILLAC       CLOUDY    31  27  84 CALM      30.13R
CHARLEVOIX     CLOUDY    30  28  91 SE3       30.18F
GAYLORD        CLOUDY    32  25  75 CALM      30.14S
HOUGHTON LAKE  PTCLDY    35  27  72 CALM      30.15R
MANISTEE       CLOUDY    34  29  82 E6        30.14S WCI  29
OSCODA         PTCLDY    28  24  84 SW5       30.17R WCI  23
PELLSTON       PTCLDY    28  24  85 CALM      30.16F
TRAVERSE CITY  PTCLDY    31  28  89 CALM      30.15R
LUDINGTON      CLEAR     31  28  90 CALM      30.13S
$$
MIZ007>008-015-200500-
EASTERN UPPER MICHIGAN

CITY           SKY/WX    TMP DP  RH WIND       PRES   REMARKS
KINROSS        CLOUDY    31  29  92 CALM      30.17R
MACKINAC ISLAN PTCLDY    32  28  84 NE7       30.17R WCI  26
NEWBERRY       CLOUDY    29  28  96 NE5       30.15S WCI  24
S. S. MARIE    PTCLDY    33  27  78 CALM      30.17R
$$
MIZ004>006-011>014-085-200500-
CENTRAL UPPER MICHIGAN

CITY           SKY/WX    TMP DP  RH WIND       PRES   REMARKS
MANISTIQUE     PTCLDY    32  30  92 CALM      30.16R
ESCANABA       PTCLDY    30  28  92 CALM      30.16R
MENOMINEE      PTCLDY    33  30  88 NE5       30.15R WCI  29
SAWYER-GWINN   CLOUDY    35  28  77 SE6       30.14R WCI  30
$$
MIZ001>003-009>011-084-200500-
WESTERN UPPER MICHIGAN

CITY           SKY/WX    TMP DP  RH WIND       PRES   REMARKS
IRON MOUNTAIN  CLOUDY    35  27  72 SE3       30.12R
HOUGHTON       PTCLDY    35  28  75 E10       30.10R WCI  27
COPPER HARBOR    N/A     36  30  79 SW7       30.13R WCI  30
IRONWOOD       CLOUDY    44  28  53 E8        30.00S
$$

ABBREVIATIONS USED IN REMARKS
   TC - TEMPERATURE IN CELSIUS
  WCI - WIND CHILL INDEX
   HX - HEAT INDEX
  VSB - VISIBILITY





USA.gov is the U.S. government's official web portal to all federal, state and local government web resources and services.